EW2918 Weather Reports


time (UTC)temp
C
wind
direction
speed
KPH
gust
KPH
rain 1hr
cm
rain 24hr
cm
rain mn
cm
humidity
%
barometer
mb
20260906051805 23 208 0.0 0.0 0.00 0.00 0.00 89 979.8
20260906050804 23 208 0.0 0.0 0.00 0.00 0.00 88 979.8
20260906050305 23 208 0.0 0.0 0.00 0.00 0.00 89 979.9
20260906044805 23 208 0.0 0.0 0.00 0.00 0.00 88 979.9
20260906044304 23 208 0.0 0.0 0.00 0.00 0.00 88 979.9
20260906043805 23 208 0.0 0.0 0.00 0.00 0.00 88 979.8
20260906043305 23 208 0.0 0.0 0.00 0.00 0.00 88 979.8
20260906041805 23 208 0.0 0.0 0.00 0.00 0.00 87 979.8
20260906041305 23 208 0.0 0.0 0.00 0.00 0.00 87 979.8
20260906040934 23 208 0.0 0.0 0.00 0.00 0.00 87 979.9
20260906040305 23 208 0.0 0.0 0.00 0.00 0.00 86 979.9
20260906034804 23 208 0.0 0.0 0.00 0.00 0.00 85 980.0
20260906034304 23 208 0.0 0.0 0.00 0.00 0.00 85 980.0
20260906033304 23 208 0.0 0.0 0.00 0.00 0.00 85 980.0
20260906031804 23 208 0.0 0.0 0.00 0.00 0.00 84 980.0
20260906031305 24 208 0.0 1.6 0.00 0.00 0.00 85 980.0
20260906030804 24 153 0.0 1.6 0.00 0.00 0.00 85 980.0
20260906024804 24 293 0.0 3.2 0.00 0.00 0.00 83 980.1
20260906024305 25 202 0.0 3.2 0.00 0.00 0.00 82 980.1
20260906023804 25 202 0.0 4.8 0.00 0.00 0.00 81 980.1
20260906023304 25 202 0.0 4.8 0.00 0.00 0.00 81 980.1
20260906021308 24 193 0.0 3.2 0.00 0.00 0.00 81 979.8
20260906020805 24 190 0.0 3.2 0.00 0.00 0.00 81 979.8
20260906020304 24 181 0.0 0.0 0.00 0.00 0.00 81 979.8
20260906014804 24 181 0.0 0.0 0.00 0.00 0.00 82 979.6
20260906014305 24 181 0.0 0.0 0.00 0.00 0.00 82 979.5
20260906013804 24 181 0.0 0.0 0.00 0.00 0.00 81 979.4
20260906013304 24 181 0.0 0.0 0.00 0.00 0.00 82 979.4
20260906011804 24 181 0.0 0.0 0.00 0.00 0.00 81 979.4
20260906011304 25 181 0.0 0.0 0.00 0.00 0.00 80 979.4
20260906010805 25 181 0.0 0.0 0.00 0.00 0.00 80 979.3
20260906010305 25 181 0.0 0.0 0.00 0.00 0.00 79 979.2
20260906004805 25 204 0.0 0.0 0.00 0.00 0.00 80 979.2
20260906004304 25 204 0.0 0.0 0.00 0.00 0.00 78 979.2
20260906003805 25 204 0.0 3.2 0.00 0.00 0.00 79 979.1
20260906003305 25 204 0.0 3.2 0.00 0.00 0.00 76 979.1
20260906001806 25 196 0.0 3.2 0.00 0.00 0.00 77 979.0
20260906001306 25 196 0.0 3.2 0.00 0.00 0.00 76 978.9
20260906000804 25 202 1.6 3.2 0.00 0.00 0.00 77 978.9
20260906000305 25 183 0.0 0.0 0.00 0.00 0.00 77 978.9
20260905234804 25 183 0.0 1.6 0.00 0.00 0.00 76 978.6
20260905234304 26 192 0.0 0.0 0.00 0.00 0.00 76 978.6
20260905233805 26 192 0.0 0.0 0.00 0.00 0.00 77 978.5
20260905233305 26 192 0.0 0.0 0.00 0.00 0.00 75 978.5
20260905231805 26 200 0.0 0.0 0.00 0.00 0.00 73 978.5
20260905231304 26 200 0.0 0.0 0.00 0.00 0.00 73 978.6
20260905230805 26 200 0.0 0.0 0.00 0.00 0.00 72 978.6
20260905230305 26 200 0.0 0.0 0.00 0.00 0.00 72 978.7
20260905224804 26 200 0.0 1.6 0.00 0.00 0.00 72 978.8
20260905224304 26 170 0.0 0.0 0.00 0.00 0.00 74 978.9
20260905223805 26 170 0.0 0.0 0.00 0.00 0.00 74 978.9
20260905223304 26 170 0.0 0.0 0.00 0.00 0.00 74 978.9
20260905221306 26 170 0.0 0.0 0.00 0.00 0.00 71 978.7
20260905220804 26 170 0.0 0.0 0.00 0.00 0.00 72 978.7
20260905220305 26 170 0.0 1.6 0.00 0.00 0.00 72 978.9
20260905214804 26 193 0.0 0.0 0.00 0.00 0.00 74 978.9
20260905214304 26 193 0.0 0.0 0.00 0.00 0.00 73 979.0
20260905213805 26 193 0.0 0.0 0.00 0.00 0.00 73 979.1
20260905213305 26 193 0.0 0.0 0.00 0.00 0.00 73 979.0
20260905211805 26 193 0.0 3.2 0.00 0.00 0.00 69 979.5
20260905211304 26 194 0.0 3.2 0.00 0.00 0.00 71 979.6
20260905210804 26 204 0.0 0.0 0.00 0.00 0.00 71 979.5
20260905210305 26 204 0.0 0.0 0.00 0.00 0.00 70 979.4
20260905204805 26 204 0.0 0.0 0.00 0.00 0.00 70 979.5
20260905204304 26 204 0.0 0.0 0.00 0.00 0.00 74 979.5
20260905203804 26 218 0.0 0.0 0.00 0.00 0.00 72 979.2
20260905201806 26 76 0.0 0.0 0.00 0.00 0.00 74 979.4
20260905201305 26 76 0.0 1.6 0.00 0.00 0.00 75 979.6
20260905200804 26 76 0.0 1.6 0.00 0.00 0.00 73 979.6
20260905200305 26 212 0.0 0.0 0.00 0.00 0.00 75 979.6
20260905194804 26 212 0.0 0.0 0.00 0.00 0.00 73 979.6
20260905194304 26 212 0.0 4.8 0.00 0.00 0.00 73 979.4
20260905193804 26 212 1.6 4.8 0.00 0.00 0.00 72 979.3
20260905193305 26 209 1.6 4.8 0.00 0.00 0.00 72 979.5
20260905191804 28 32 1.6 4.8 0.00 0.00 0.00 66 980.5
20260905191304 28 17 1.6 4.8 0.00 0.00 0.00 67 980.4
20260905190805 29 22 3.2 4.8 0.00 0.00 0.00 69 980.3
20260905190304 30 14 0.0 4.8 0.00 0.00 0.00 67 979.9
20260905184804 31 89 0.0 0.0 0.00 0.00 0.00 65 979.3
20260905184304 31 89 0.0 0.0 0.00 0.00 0.00 65 979.3
20260905183804 32 89 0.0 1.6 0.00 0.00 0.00 64 979.3
20260905183305 32 89 0.0 1.6 0.00 0.00 0.00 60 979.1
20260905181806 33 89 0.0 0.0 0.00 0.00 0.00 58 979.5
20260905181306 33 89 0.0 1.6 0.00 0.00 0.00 57 979.4
20260905180305 34 134 0.0 3.2 0.00 0.00 0.00 53 979.4
20260905174804 34 152 1.6 4.8 0.00 0.00 0.00 55 979.5
20260905173805 34 38 0.0 3.2 0.00 0.00 0.00 53 979.8
20260905173305 34 39 0.0 1.6 0.00 0.00 0.00 57 979.9
20260905171805 33 112 0.0 1.6 0.00 0.00 0.00 59 979.9
20260905171304 33 187 0.0 0.0 0.00 0.00 0.00 58 980.0
20260905170804 33 187 0.0 0.0 0.00 0.00 0.00 59 980.1
20260905170305 33 187 0.0 3.2 0.00 0.00 0.00 58 980.2
20260905163805 33 205 0.0 1.6 0.00 0.00 0.00 58 980.7
20260905163304 33 89 0.0 1.6 0.00 0.00 0.00 56 980.7
20260905160305 32 187 1.6 3.2 0.00 0.00 0.00 59 980.8
20260905154806 32 203 0.0 0.0 0.00 0.00 0.00 62 980.9
20260905154304 31 203 0.0 0.0 0.00 0.00 0.00 64 981.0
20260905153805 31 203 0.0 0.0 0.00 0.00 0.00 66 981.0
20260905153305 31 203 0.0 0.0 0.00 0.00 0.00 65 981.0
20260905151804 31 189 0.0 0.0 0.00 0.00 0.00 68 981.0
20260905151304 31 189 0.0 1.6 0.00 0.00 0.00 67 981.0
20260905150804 30 189 0.0 1.6 0.00 0.00 0.00 69 981.0
20260905144804 29 195 1.6 3.2 0.00 0.00 0.00 71 981.1
20260905144304 29 255 0.0 0.0 0.00 0.00 0.00 72 981.1
20260905143805 29 255 0.0 0.0 0.00 0.00 0.00 72 981.1
20260905143304 28 255 0.0 0.0 0.00 0.00 0.00 73 981.2
20260905141806 28 195 0.0 0.0 0.00 0.00 0.00 74 981.3
20260905141305 28 194 0.0 1.6 0.00 0.00 0.00 76 981.3
20260905140305 27 193 0.0 1.6 0.00 0.00 0.00 78 981.4
20260905134804 27 200 0.0 1.6 0.00 0.00 0.00 80 981.5
20260905134304 27 201 0.0 1.6 0.00 0.00 0.00 81 981.6
20260905133805 26 205 0.0 3.2 0.00 0.00 0.00 82 981.5
20260905133305 26 204 1.6 3.2 0.00 0.00 0.00 82 981.6
20260905131804 26 113 0.0 0.0 0.00 0.00 0.00 86 981.5
20260905131304 25 113 0.0 0.0 0.00 0.00 0.00 87 981.6
20260905130804 25 113 0.0 0.0 0.00 0.00 0.00 88 981.6
20260905124805 25 113 0.0 0.0 0.00 0.00 0.00 88 981.5
20260905124304 24 113 0.0 0.0 0.00 0.00 0.00 88 981.4
20260905123305 24 113 0.0 0.0 0.00 0.00 0.00 89 981.4
20260905121806 24 113 0.0 0.0 0.00 0.00 0.00 89 981.3
20260905121305 24 113 0.0 0.0 0.00 0.00 0.00 90 981.4
20260905120804 24 113 0.0 0.0 0.00 0.00 0.00 89 981.3
20260905120305 24 113 0.0 0.0 0.00 0.00 0.00 89 981.3
20260905114804 24 113 0.0 0.0 0.00 0.00 0.00 88 981.2
20260905114304 24 113 0.0 0.0 0.00 0.00 0.00 88 981.2
20260905113804 24 113 0.0 0.0 0.00 0.00 0.00 88 981.1
20260905113305 24 113 0.0 0.0 0.00 0.00 0.00 88 981.0
20260905111804 24 218 0.0 3.2 0.00 0.00 0.00 87 980.8
20260905110305 24 199 0.0 0.0 0.00 0.00 0.00 87 980.6
20260905104804 24 199 0.0 1.6 0.00 0.00 0.00 86 980.6
20260905103804 23 208 0.0 1.6 0.00 0.00 0.00 88 980.5
20260905103304 23 205 0.0 1.6 0.00 0.00 0.00 87 980.4
20260905101806 24 196 0.0 0.0 0.00 0.00 0.00 87 980.3
20260905101306 24 196 0.0 0.0 0.00 0.00 0.00 86 980.3
20260905100804 23 196 0.0 0.0 0.00 0.00 0.00 86 980.3
20260905100305 24 196 0.0 0.0 0.00 0.00 0.00 87 980.2
20260905094805 24 196 0.0 0.0 0.00 0.00 0.00 87 980.2
20260905094304 24 196 0.0 0.0 0.00 0.00 0.00 85 980.2
20260905093804 24 196 0.0 0.0 0.00 0.00 0.00 85 980.2
20260905093304 24 196 0.0 0.0 0.00 0.00 0.00 85 980.2
20260905091805 24 196 0.0 0.0 0.00 0.00 0.00 86 980.3
20260905091304 24 196 0.0 0.0 0.00 0.00 0.00 86 980.2
20260905090804 23 196 0.0 0.0 0.00 0.00 0.00 86 980.3
20260905090305 23 196 0.0 0.0 0.00 0.00 0.00 87 980.3
20260905084805 23 196 0.0 0.0 0.00 0.00 0.00 87 980.4
20260905084304 23 196 0.0 1.6 0.00 0.00 0.00 87 980.5
20260905083804 23 196 0.0 1.6 0.00 0.00 0.00 87 980.5
20260905083305 23 207 0.0 1.6 0.00 0.00 0.00 87 980.6
20260905081807 24 192 0.0 0.0 0.00 0.00 0.00 86 980.6
20260905081306 24 192 0.0 0.0 0.00 0.00 0.00 86 980.5
20260905080805 24 192 0.0 0.0 0.00 0.00 0.00 86 980.6
20260905080304 24 192 0.0 0.0 0.00 0.00 0.00 86 980.7
20260905074804 24 192 0.0 0.0 0.00 0.00 0.00 86 980.8
20260905074305 24 192 0.0 0.0 0.00 0.00 0.00 85 980.9
20260905073804 24 192 0.0 3.2 0.00 0.00 0.00 85 981.0
20260905073305 24 192 0.0 3.2 0.00 0.00 0.00 84 981.0
20260905071804 24 176 0.0 0.0 0.00 0.00 0.00 85 981.0
20260905071304 24 176 0.0 0.0 0.00 0.00 0.00 85 981.0
20260905070804 24 176 0.0 0.0 0.00 0.00 0.00 85 981.0
20260905070305 24 176 0.0 0.0 0.00 0.00 0.00 86 981.1
20260905064805 25 176 0.0 0.0 0.00 0.00 0.00 85 981.1
20260905064305 25 176 0.0 0.0 0.00 0.00 0.00 84 981.1
20260905063304 25 176 0.0 1.6 0.00 0.00 0.00 82 981.1
20260905061806 25 202 0.0 0.0 0.00 0.00 0.00 84 981.2
20260905061305 25 202 0.0 1.6 0.00 0.00 0.00 83 981.3
20260905060805 25 202 0.0 1.6 0.00 0.00 0.00 84 981.4
20260905060305 25 181 0.0 1.6 0.00 0.00 0.00 82 981.4
20260905054805 25 177 0.0 0.0 0.00 0.00 0.00 82 981.5
20260905054304 25 177 0.0 1.6 0.00 0.00 0.00 82 981.6
20260905053804 25 177 0.0 3.2 0.00 0.00 0.00 81 981.7
20260905053305 25 206 0.0 3.2 0.00 0.00 0.00 81 981.7